EW9629 Weather Reports


Display with metric or nautical units.
time (UTC)temp
F
wind
direction
speed
MPH
gust
MPH
rain 1hr
in
rain 24hr
in
rain mn
in
humidity
%
barometer
mb
20260510000055 71 140 0.0 2.0 0.00 0.10 0.04 89 1012.4
20260509234603 71 0 0.0 3.0 0.00 0.10 0.04 89 1012.3
20260509233056 72 0 0.0 2.0 0.00 0.10 0.04 88 1012.4
20260509231606 72 0 0.0 2.0 0.00 0.10 0.04 88 1012.3
20260509224555 72 0 0.0 2.0 0.00 0.10 0.04 88 1012.0
20260509223049 72 0 0.0 2.0 0.00 0.10 0.04 88 1012.2
20260509221552 72 0 0.0 2.0 0.00 0.10 0.04 88 1012.1
20260509220056 72 0 0.0 3.0 0.00 0.10 0.04 89 1012.2
20260509214550 72 99 0.0 2.0 0.00 0.10 0.04 88 1012.1
20260509213053 72 0 0.0 2.0 0.01 0.10 0.04 88 1012.4
20260509211559 73 0 0.0 2.0 0.01 0.10 0.04 88 1012.6
20260509210107 73 0 0.0 2.0 0.01 0.10 0.04 88 1012.3
20260509204553 73 0 0.0 2.0 0.01 0.10 0.04 88 1012.4
20260509203056 73 0 0.0 3.0 0.00 0.09 0.03 88 1012.6
20260509201559 73 223 0.0 3.0 0.00 0.09 0.03 87 1012.3
20260509200100 74 0 0.0 3.0 0.00 0.09 0.03 87 1012.3
20260509194559 74 121 0.0 3.0 0.00 0.09 0.03 87 1012.6
20260509193100 75 0 0.0 2.0 0.00 0.09 0.03 86 1012.3
20260509191555 76 0 0.0 2.0 0.00 0.09 0.03 83 1012.3
20260509190108 77 348 0.0 7.0 0.00 0.09 0.03 81 1012.3
20260509184557 77 0 0.0 3.0 0.00 0.09 0.03 78 1012.2
20260509183055 78 101 0.0 2.0 0.00 0.09 0.03 76 1012.3
20260509181554 79 0 0.0 2.0 0.00 0.09 0.03 75 1012.5
20260509174658 80 213 0.0 2.0 0.00 0.09 0.03 73 1012.7
20260509174554 80 213 0.0 2.0 0.00 0.09 0.03 73 1012.7
20260509173057 80 298 0.0 2.0 0.00 0.09 0.03 73 1012.7
20260509171550 80 197 0.0 3.0 0.00 0.09 0.03 74 1012.8
20260509170104 80 0 0.0 3.0 0.00 0.09 0.03 74 1012.8
20260509164550 81 0 0.0 3.0 0.00 0.09 0.03 72 1013.0
20260509163102 81 301 0.0 3.0 0.00 0.09 0.03 75 1013.1
20260509161554 79 109 1.0 7.0 0.00 0.09 0.03 78 1013.1
20260509160059 77 0 0.0 4.0 0.00 0.09 0.03 82 1013.4
20260509154607 76 0 0.0 5.0 0.00 0.09 0.03 84 1013.5
20260509153052 76 115 0.0 3.0 0.00 0.09 0.03 85 1013.6
20260509151558 75 96 0.0 3.0 0.00 0.09 0.03 87 1013.4
20260509150108 74 0 0.0 2.0 0.00 0.09 0.03 89 1013.8
20260509144601 73 0 0.0 2.0 0.00 0.09 0.03 90 1013.8
20260509143105 73 0 0.0 2.0 0.00 0.09 0.03 92 1014.0
20260509141555 72 0 0.0 2.0 0.00 0.09 0.03 94 1013.7
20260509140058 71 0 0.0 2.0 0.00 0.09 0.03 96 1013.5
20260509134556 71 0 0.0 2.0 0.00 0.09 0.03 97 1013.5
20260509133101 71 0 0.0 2.0 0.00 0.09 0.03 97 1013.5
20260509131552 71 0 0.0 2.0 0.00 0.09 0.03 98 1013.5
20260509130101 70 0 0.0 2.0 0.00 0.09 0.03 98 1013.8
20260509124600 70 0 0.0 0.0 0.00 0.09 0.03 98 1013.7
20260509123104 69 0 0.0 2.0 0.00 0.09 0.03 97 1013.4
20260509121601 66 0 0.0 2.0 0.00 0.09 0.03 97 1013.1
20260509120054 65 0 0.0 2.0 0.00 0.09 0.03 96 1013.1
20260509114602 64 0 0.0 0.0 0.00 0.09 0.03 96 1013.3
20260509113107 64 0 0.0 2.0 0.00 0.09 0.03 96 1013.1
20260509111556 64 0 0.0 0.0 0.00 0.09 0.03 96 1013.0
20260509110056 64 0 0.0 0.0 0.00 0.09 0.03 96 1013.0
20260509104549 64 0 0.0 2.0 0.00 0.09 0.03 96 1012.8
20260509103052 64 0 0.0 2.0 0.00 0.09 0.03 96 1012.4
20260509101554 64 0 0.0 0.0 0.00 0.09 0.03 96 1012.2
20260509100051 64 0 0.0 2.0 0.00 0.09 0.03 95 1012.1
20260509094552 64 0 0.0 1.0 0.00 0.09 0.03 95 1012.0
20260509093049 65 0 0.0 0.0 0.00 0.09 0.03 96 1012.1
20260509091558 65 0 0.0 2.0 0.00 0.09 0.03 96 1012.4
20260509090111 65 0 0.0 2.0 0.00 0.09 0.03 96 1012.0
20260509084551 65 0 0.0 2.0 0.00 0.09 0.03 96 1013.1
20260509083056 65 0 0.0 2.0 0.00 0.09 0.03 95 1012.3
20260509081554 65 0 0.0 2.0 0.00 0.09 0.03 95 1012.0
20260509080106 65 0 0.0 2.0 0.00 0.09 0.03 95 1012.7
20260509074551 65 0 0.0 2.0 0.00 0.09 0.03 95 1013.1
20260509073105 65 0 0.0 2.0 0.00 0.09 0.03 95 1012.8
20260509071551 65 251 0.0 2.0 0.00 0.09 0.03 95 1012.5
20260509070056 64 0 0.0 0.0 0.00 0.09 0.03 95 1012.8
20260509064555 64 0 0.0 0.0 0.00 0.09 0.03 95 1013.1
20260509063103 65 0 0.0 2.0 0.00 0.09 0.03 95 1013.7
20260509061549 65 0 0.0 2.0 0.01 0.09 0.03 94 1013.4
20260509060054 65 0 0.0 2.0 0.01 0.09 0.03 94 1014.0
20260509054552 65 0 0.0 2.0 0.01 0.09 0.03 94 1013.4
20260509053049 65 0 0.0 2.0 0.01 0.09 0.03 94 1013.5
20260509051552 65 0 0.0 0.0 0.01 0.08 0.02 94 1014.5
20260509050059 65 0 0.0 2.0 0.02 0.08 0.02 94 1014.5
20260509044547 66 0 0.0 0.0 0.04 0.08 0.02 93 1014.3
20260509043049 66 0 0.0 2.0 0.05 0.08 0.02 93 1014.7
20260509041554 67 0 0.0 2.0 0.05 0.07 0.01 93 1014.7
20260509040052 67 86 0.0 2.0 0.06 0.06 0.00 93 1014.0
20260509034559 67 0 0.0 2.0 0.04 0.04 0.04 93 1015.3
20260509033107 67 0 0.0 0.0 0.03 0.03 0.03 92 1015.7
20260509031552 67 0 0.0 1.0 0.02 0.02 0.02 91 1015.4
20260509030053 67 0 0.0 0.0 0.00 0.00 0.00 90 1016.3
20260509024603 67 0 0.0 0.0 0.00 0.00 0.00 90 1016.3
20260509023048 68 0 0.0 0.0 0.00 0.00 0.00 89 1016.3
20260509021547 68 0 0.0 0.0 0.00 0.00 0.00 88 1016.3
20260509020056 68 0 0.0 0.0 0.00 0.00 0.00 88 1016.2
20260509014551 68 0 0.0 0.0 0.00 0.00 0.00 87 1016.0
20260509013056 68 0 0.0 0.0 0.00 0.00 0.00 86 1015.2
20260509011601 68 0 0.0 0.0 0.00 0.00 0.00 85 1015.1
20260509010054 68 0 0.0 1.0 0.00 0.00 0.00 85 1015.3
20260509004557 68 0 0.0 0.0 0.00 0.00 0.00 85 1014.9
20260509003051 69 0 0.0 0.0 0.00 0.00 0.00 84 1015.1
20260509001554 69 0 0.0 2.0 0.00 0.00 0.00 84 1014.8